Weather History for Charlotte, NC

Change the Weather History Date:

Thursday, January 3, 2013

  Actual Average Record
Temperature  
Mean Temperature 39 °F 40 °F  
Max Temperature 46 °F 50 °F 74 °F (2004)
Min Temperature 31 °F 30 °F 8 °F (1887)
Degree Days  
Heating Degree Days 26 25  
Month to date heating degree days 60 75  
Since 1 July heating degree days 1239 1412  
Cooling Degree Days 0 0  
Month to date cooling degree days 0 0  
Year to date cooling degree days 0 0  
Moisture  
Dew Point 37 °F    
Average Humidity 84    
Maximum Humidity 96    
Minimum Humidity 71    
Precipitation  
Precipitation T in 0.11 in 1.93 in (1906)
Month to date precipitation 0.49 0.32  
Year to date precipitation 0.49 0.32  
Snow  
Snow 0.00 in 0.00 in 3.50 in (2002)
Month to date snowfall 0.0 0.1  
Since 1 July snowfall 0.0 0.5  
Snow Depth 0.00 in    
Sea Level Pressure  
Sea Level Pressure 30.19 in    
Wind  
Wind Speed 5 mph (NE)    
Max Wind Speed 10 mph    
Max Gust Speed 13 mph    
Visibility 7 miles    
Events      
T = Trace of Precipitation, MM = Missing Value Source: NWS Daily Summary

Daily Weather History Graph

Daily Weather History Graph

Search for Another Location

Airport:

Trip Planner

Search our weather history database for the weather conditions in past years. The results will help you decide how hot, cold, wet, or windy it might be!

Date:

Astronomy

Jan. 03, 2013 Rise Set
Actual Time 7:32 AM EST 5:24 PM EST
Civil Twilight 7:04 AM EST 5:52 PM EST
Nautical Twilight 6:33 AM EST 6:24 PM EST
Astronomical Twilight 6:02 AM EST 6:54 PM EST
Moon 11:42 PM EST (1/3) 10:58 AM EST (1/3)
Length of Visible Light 10h 47m
Length of Day
9h 51m
Waning Gibbous, 65% of the Moon is Illuminated
Jan 3
Waning Gibbous
Jan 4
Last Quarter
Jan 11
New
Jan 18
First Quarter
Jan 26
Full

Hourly Weather History & Observations

Time (EST) Temp. Windchill Dew Point Humidity Pressure Visibility Wind Dir Wind Speed Gust Speed Precip Events Conditions
12:52 AM 45.0 °F 41.8 °F 37.9 °F 76% 30.12 in 9.0 mi East 5.8 mph - N/A   Overcast
1:52 AM 44.6 °F 41.4 °F 39.2 °F 81% 30.12 in 8.0 mi East 5.8 mph - N/A   Overcast
2:19 AM 44.6 °F 42.2 °F 39.2 °F 81% 30.14 in 7.0 mi East 4.6 mph - N/A   Overcast
2:52 AM 44.1 °F 40.8 °F 39.9 °F 85% 30.15 in 7.0 mi North 5.8 mph - N/A   Overcast
3:52 AM 43.0 °F 38.8 °F 39.9 °F 89% 30.15 in 7.0 mi NE 6.9 mph - N/A   Overcast
4:52 AM 43.0 °F 37.7 °F 39.0 °F 86% 30.12 in 7.0 mi ESE 9.2 mph - N/A   Overcast
4:59 AM 42.8 °F 38.6 °F 37.4 °F 81% 30.12 in 7.0 mi ESE 6.9 mph - N/A   Overcast
5:52 AM 43.0 °F 39.5 °F 37.9 °F 82% 30.14 in 7.0 mi ESE 5.8 mph - N/A   Overcast
6:52 AM 43.0 °F 40.3 °F 37.9 °F 82% 30.16 in 7.0 mi NE 4.6 mph - N/A   Overcast
7:52 AM 43.0 °F 40.3 °F 37.0 °F 80% 30.17 in 6.0 mi ENE 4.6 mph - N/A   Haze
8:52 AM 43.0 °F 38.8 °F 37.0 °F 80% 30.19 in 5.0 mi NE 6.9 mph - N/A   Haze
9:52 AM 43.0 °F 38.8 °F 37.0 °F 80% 30.21 in 6.0 mi NE 6.9 mph - N/A   Haze
10:52 AM 43.0 °F 39.5 °F 37.9 °F 82% 30.20 in 3.0 mi ENE 5.8 mph - N/A   Haze
11:52 AM 43.0 °F 41.3 °F 37.0 °F 80% 30.19 in 7.0 mi ESE 3.5 mph - N/A   Overcast
12:50 PM 44.6 °F 43.1 °F 37.4 °F 76% 30.16 in 5.0 mi Variable 3.5 mph - N/A   Haze
12:52 PM 43.0 °F - 37.0 °F 80% 30.17 in 5.0 mi Calm Calm - N/A   Haze
1:52 PM 45.0 °F - 37.0 °F 74% 30.16 in 6.0 mi Calm Calm - N/A   Haze
2:52 PM 44.1 °F 42.5 °F 37.9 °F 79% 30.17 in 6.0 mi NNW 3.5 mph - N/A   Haze
3:52 PM 45.0 °F 42.6 °F 37.9 °F 76% 30.19 in 7.0 mi North 4.6 mph - N/A   Overcast
4:52 PM 45.0 °F 43.5 °F 37.0 °F 74% 30.21 in 10.0 mi NNW 3.5 mph - N/A   Overcast
5:52 PM 43.0 °F - 36.0 °F 76% 30.21 in 6.0 mi Calm Calm - N/A   Haze
6:00 PM 42.8 °F - 35.6 °F 76% 30.21 in 10.0 mi Calm Calm - N/A   Mostly Cloudy
6:52 PM 39.9 °F 37.8 °F 36.0 °F 86% 30.24 in 10.0 mi North 3.5 mph - N/A   Scattered Clouds
7:52 PM 39.0 °F - 36.0 °F 89% 30.26 in 10.0 mi Calm Calm - N/A   Partly Cloudy
8:52 PM 34.0 °F 29.8 °F 32.0 °F 92% 30.27 in 9.0 mi NW 4.6 mph - N/A   Clear
9:52 PM 37.0 °F 33.3 °F 35.1 °F 93% 30.28 in 9.0 mi North 4.6 mph - N/A   Clear
10:52 PM 32.0 °F 26.4 °F 30.0 °F 92% 30.28 in 10.0 mi NNW 5.8 mph - N/A   Clear
11:52 PM 32.0 °F 26.4 °F 28.9 °F 88% 30.28 in 10.0 mi North 5.8 mph - N/A   Clear